Home > Weather > Apolda > Past weeks

Flag for Germany Past Weather in Apolda, Thuringia, Germany — Yesterday and Last 2 Weeks

Now
57 °F

Clear.


Feels Like: 55 °F
Forecast: 57 / 76 °F
Wind: 8 mph from South

Location: Erfurt-Bindersleben

Current Time: Jun 30, 2016 at 5:28:02 AM

Latest Report: Jun 30, 2016 at 4:50 AM


Visibility: 10 mi

Pressure: 29.92 "Hg

Humidity: 77%

Dew Point: 50 °F

Location of ApoldaLocation

Past Weather in Apolda — Graph

°F

Apolda Temperature Yesterday

Maximum temperature yesterday: 75 °F (at 3:20 PM)
Minimum temperature yesterday: 61 °F (at 12:20 AM)
Average temperature yesterday: 66 °F

High & Low Weather Summary for the Past Weeks

 TemperatureHumidityPressure
High91 °F (Jun 24, 3:50 PM)100% (Jun 17, 6:50 AM)30.24 "Hg (Jun 17, 6:50 AM)
Low46 °F (Jun 20, 5:20 AM)31% (Jun 23, 4:20 PM)29.53 "Hg (Jun 15, 4:20 AM)
Average64 °F74%29.99 "Hg
* Reported Jun 15 4:20 AM — Jun 30 4:20 AM, Apolda, Weather by CustomWeather, © 2016

Note: Actual official high and low records may vary slightly from our data, if they occured in-between our weather recording intervals... More about our weather records

Advertising

Apolda Weather History for the Previous 24 Hours

Scroll right to see more
 ConditionsComfort  
Time TempWeatherWind HumidityBarometerVisibility
4:20 AM
Thu, Jun 30
55 °FClear.8 mph82%29.92 "Hg10 mi
3:50 AM57 °FClear.8 mph72%29.92 "Hg10 mi
3:20 AM55 °FClear.7 mph82%29.92 "Hg10 mi
2:50 AM57 °FClear.8 mph77%29.92 "Hg10 mi
2:20 AM55 °FClear.8 mph82%29.92 "Hg10 mi
1:20 AM57 °FClear.8 mph77%29.92 "Hg10 mi
12:50 AM59 °FClear.8 mph72%29.95 "Hg10 mi
12:20 AM61 °FClear.7 mph68%29.95 "Hg10 mi
11:50 PM
Wed, Jun 29
61 °FClear.7 mph63%29.95 "Hg10 mi
11:20 PM61 °FClear.8 mph63%29.95 "Hg10 mi
10:50 PM61 °FClear.8 mph63%29.95 "Hg10 mi
10:20 PM61 °FSunny.7 mph63%29.95 "Hg10 mi
9:50 PM61 °FSunny.7 mph63%29.95 "Hg10 mi
9:20 PM64 °FSunny.7 mph56%29.92 "Hg10 mi
8:50 PM64 °FSunny.7 mph60%29.92 "Hg10 mi
8:20 PM66 °FSunny.8 mph56%29.92 "Hg10 mi
7:50 PM68 °FSunny.13 mph53%29.92 "Hg10 mi
7:20 PM70 °FSunny.13 mph53%29.92 "Hg10 mi
6:50 PM72 °FSunny.13 mph44%29.92 "Hg10 mi
6:20 PM73 °FSunny.13 mph41%29.92 "Hg10 mi
5:50 PM72 °FSunny.15 mph41%29.92 "Hg10 mi
5:20 PM73 °FSunny.16 mph41%29.92 "Hg10 mi
4:50 PM73 °FPassing clouds.17 mph41%29.92 "HgN/A
4:20 PM73 °FPassing clouds.18 mph41%29.92 "HgN/A
3:20 PM75 °FPassing clouds.18 mph44%29.92 "HgN/A
2:50 PM73 °FPassing clouds.17 mph47%29.92 "HgN/A
2:20 PM72 °FPassing clouds.16 mph53%29.92 "HgN/A
1:50 PM72 °FPassing clouds.16 mph53%29.92 "HgN/A
1:20 PM72 °FSunny.20 mph50%29.92 "Hg10 mi
12:50 PM72 °FBroken clouds.17 mph50%29.92 "HgN/A
12:20 PM72 °FScattered clouds.17 mph53%29.92 "HgN/A
11:50 AM72 °FScattered clouds.17 mph57%29.92 "HgN/A
11:20 AM72 °FScattered clouds.18 mph57%29.92 "HgN/A
10:20 AM70 °FPassing clouds.17 mph60%29.89 "HgN/A
9:50 AM68 °FBroken clouds.17 mph64%29.92 "HgN/A
9:20 AM68 °FScattered clouds.17 mph69%29.92 "HgN/A
8:50 AM68 °FScattered clouds.17 mph69%29.89 "HgN/A
8:20 AM66 °FPassing clouds.16 mph68%29.89 "HgN/A
7:50 AM64 °FPassing clouds.14 mph78%29.89 "HgN/A
7:20 AM63 °FPassing clouds.13 mph83%29.89 "HgN/A
6:50 AM63 °FPartly sunny.10 mph83%29.89 "HgN/A
6:20 AM63 °FPartly sunny.10 mph83%29.89 "HgN/A
5:20 AM61 °FPartly cloudy.7 mph83%29.89 "HgN/A
Weather by CustomWeather, © 2016

See weather overviewHow to use our weather pages